Погода в Погиби

Погода в Погиби : погода сейчас, прогноз погоды и архив. Всё, что Вы хотите узнать о погоде в Погиби!

Хотите узнать прогноз погоды в Погиби? Тогда Вам сюда: Погода в Погиби

Поиск расширенной информации на нашем сайте:

Другие новости

Новости СМИ2

Главная страница сайта

Новости сайта

03.07.2017

Напоминаем, что на нашем специализированном сайте Метеоцентр.Азия вы можете получить высокодетализированные автоматические прогнозы погоды по пунктам России, СНГ и мира в авиационном формате (включающие направление и скорость ветра, видимость, явления погоды, количество и форму облачности, нижнюю и верхнюю границу облачности).


Погода в Погиби - сегодня

Время (UTC), дата Ветер
(°,м/с) 
Видим.   Явления Облачность Т
(°С)
Тd
(°С)
f(%) Тe
(°С)
Pmin
(гПа)
dP
(гПа)
Po
(мм)
O2
(г/м3)
Тmin Tmax R s Состояние
почвы
00 11.02.18 360 (С) 2-3{04}  20000 м    8/0 средняя, верхняя 
[Ac trans|Ci sp]
-24 -26.5 80 -27  1007.5  -1.1  755  335  -24         
15 11.02.18 360 (С) 4-5{06}  20000 м    ясно 
-25.2 -27.7 80 -31  1003.9  -1.7  752  336           
18 11.02.18 360 (С) 3-4{05}  20000 м    ясно 
-26.4 -28.9 79 -32  1003.2  -0.7  752  337           
21 11.02.18 340 (С) 2-3{04}  20000 м    4/0 верхняя 
[Ci sp]
-28 -30.5 79 -32  1002.8  -0.4  751  339  -28.4      98  неравномерный
сухой снег
100% 
12 12.02.18 340 (С) 4-5{06}  20000 м    ясно 
-21.6 -24.1 80 -27  998.2  748  329           
15 12.02.18 340 (С) 4-5{06}  20000 м    ясно 
-22 -24.6 79 -28  998.2  748  330           
18 12.02.18 340 (С) 4-5{06}  20000 м    ясно 
-22.7 -25.2 80 -29  998.4  0.2  748  331           
21 12.02.18 340 (С) 2-3{05}  20000 м    10/0 средняя 
[As op]
-22 -24.6 79 -25  999.5  1.1  749  330  -22.7      98  неравномерный
сухой снег
100% 
21 13.02.18 020 (С) 1-2{03}  20000 м    3/0 верхняя 
[Ci sp]
-26.6 -29 80 -27  1000.9  0.2  750  337  -26.7      98  неравномерный
сухой снег
100% 
21 14.02.18 310 (СЗ) 2-3{04}  20000 м    4/0 средняя, верхняя 
[Ac trans|Ci sp]
-19.7 -23.8 70 -22  1001  750  327  -21      98  неравномерный
сухой снег
100% 
12 15.02.18 340 (С) 1-2{03}  20000 м    ясно 
-19.1 -23.2 70 -19  1004.3  0.5  753  328           
15 15.02.18 250 (З) 2-3{04}  20000 м    ясно 
-16.3 -20.5 70 -19  1004.3  753  324           
18 15.02.18 270 (З) 2-3{04}  20000 м    ясно 
-17.2 -21.4 70 -20  1004.5  0.2  753  325           
21 15.02.18 250 (З) 2-3{04}  20000 м    4/0 верхняя 
[Ci sp]
-17.4 -21.6 70 -20  1004.8  0.3  753  326  -19.4      98  неравномерный
сухой снег
100% 
21 16.02.18 340 (С) 4-5{06}  20000 м    8/6 600 м кучево-дожд., средняя 
[Cb cap|Ac trans]
-18.4 -21 80 -24  1006.2  -0.2  754  327  -18.4      98  неравномерный
сухой снег
100% 
21 17.02.18 360 (С) 2-3{06}  20000 м    4/0 верхняя 
[Ci sp]
-21.3 -24.6 75 -24  1014  1.2  760  334  -21.5    0.8  102  неравномерный
сухой снег
100% 
21 18.02.18 320 (СЗ) 1-1{02}  20000 м    4/0 средняя, верхняя 
[Ac trans|Ci sp]
-26 -28.4 80 -27  1012.3  -0.4  758  340  -26.1      102  неравномерный
сухой снег
100% 
12 19.02.18 тихо () -0{01}  20000 м    ясно 
-20.7 -24.7 70 -21  1009.6  0.1  757  332           
15 19.02.18 тихо () -0{01}  20000 м    ясно 
-22.4 -25.6 75 -22  1009.2  -0.4  756  334           
18 19.02.18 360 (С) 1-1{02}  20000 м    ясно 
-23.4 -26.9 73 -24  1009.2  756  335           
21 19.02.18 360 (С) 1-2{03}  20000 м    3/0 верхняя 
[Ci sp]
-26.4 -28.9 79 -27  1009.2  -0.1  756  339  -26.8      102  неравномерный
сухой снег
100% 
15 20.02.18 360 (С) 1-2{03}  20000 м    ясно 
-25.2 -29.1 70 -26  1009.5  0.6  756  338           
18 20.02.18 360 (С) 1-2{03}  20000 м    ясно 
-25.7 -29.6 70 -26  1010  0.5  757  338           
21 20.02.18 360 (С) 2-3{04}  20000 м    4/0 средняя, верхняя 
[Ac trans|Ci sp]
-28 -31.9 69 -32  1010.2  0.3  757  342  -28      102  неравномерный
сухой снег
100% 
21 21.02.18 050 (СВ) 2-3{04}  20000 м    5/0 средняя, верхняя 
[Ac trans|Ci sp]
-29.5 -32.6 74 -33  1013.6  0.7  759  345  -29.6        полностью
покрыта
пылью 
Время (UTC), дата Ветер
(°,м/с) 
Видим.   Явления Облачность Т
(°С)
Тd
(°С)
f(%) Тe
(°С)
Pmin
(гПа)
dP
(гПа)
Po
(мм)
O2
(г/м3)
Тmin Tmax R s Состояние
почвы

Для получения пояснительной информации подведите курсор к названию столбца.

ПОГОДА в Погиби - архив

Всё, что Вы хотите узнать о погоде в Погиби - удобно и подробно!

Выберите нужную дату (начиная с 1 января 2015* года) и нажмите кнопку "Найти".
Будут отображены архивные сводки погоды по пункту Погиби, начиная с указанной даты.


Отображать данные в формате CSV (для использования в таблицах Excel)


Внимание! Наш архив погоды предназначен исключительно для личного некоммерческого использования в познавательных целях. Если Вам необходимы официальные справки о состоянии погоды (для производственных, юридических, коммерческих и т.п. целей), обращайтесь в органы Росгидромета.

*Примечание: данная дата относится к архиву по метеостанциям СССР (Россия, СНГ, Балтия).
Архив по метеостанциям Зарубежной Европы и Азии (кроме Китая) хранится 10 дней, по другим регионам земного шара (Китай, Африка, Америка, Австралия, Океания) - 1 день.

Погиби - район местоположения метеостанции


Название, широта, долгота, высота метеостанции:
Погиби 52.2°ш. 141.6°д. 6 м над ур. моря [Российская Федерация]

Дополнительная информация

В oтличие oт бoльшинства пoгoдных сайтoв мы публикуем пoдрoбную метеoинфoрмацию в детальнoм прoфессиoнальнoм фoрмате.

Характеристики температуры и влажнoсти вoздуха измеряются на высoте 2 м в тени вдали oт зданий и деревьев.
Скoрoсть ветра измеряется на высoте 10 м (на урoвне рoста челoвека скoрoсть ветра ниже в 1.5-2 раза). Если метеoстанция нахoдится в гoрoде или в лесу, тo скoрoсть ветра занижена на 2-4 м/с пo сравнению с oткрытым местoм. Скoрoсть ветра над акватoриями крупных рек и oзёр, а также на вершинах хoлмoв на 2-5 м/с выше, чем в oбычных услoвиях.
Атмoсфернoе давление в разных тoчках местнoсти мoжет значительнo oтличаться oт давления на метеoстанции, в зависимoсти oт услoвий рельефа (при пoдъёме на 10 м давление пoнижается примернo на 1 мм рт.ст.).